Weather History for Altus, OK

Change the Weather History Date:

Friday, April 12, 2013

  Actual Average (KLTS) Record (KLTS)
Temperature  
Mean Temperature 53 °F -  
Max Temperature 68 °F 71 °F 91 °F (2014)
Min Temperature 38 °F 46 °F 28 °F (1997)
Degree Days  
Heating Degree Days 12    
Growing Degree Days 3 (Base 50)    
Moisture  
Dew Point 39 °F    
Average Humidity 61    
Maximum Humidity 86    
Minimum Humidity 35    
Precipitation  
Precipitation 0.00 in - - ()
Sea Level Pressure  
Sea Level Pressure 29.95 in    
Wind  
Wind Speed 6 mph (ENE)    
Max Wind Speed 15 mph    
Max Gust Speed 17 mph    
Visibility 10 miles    
Events      
Averages and records for this station are not official NWS values.
T = Trace of Precipitation, MM = Missing Value Source: NWS Daily Summary

Daily Weather History Graph

Daily Weather History Graph

Search for Another Location

Airport:

Trip Planner

Search our weather history database for the weather conditions in past years. The results will help you decide how hot, cold, wet, or windy it might be!

Date:

Astronomy

Apr. 12, 2013 Rise Set
Actual Time 7:09 AM CDT 8:07 PM CDT
Civil Twilight 6:43 AM CDT 8:33 PM CDT
Nautical Twilight 6:12 AM CDT 9:03 PM CDT
Astronomical Twilight 5:41 AM CDT 9:35 PM CDT
Moon 8:25 AM CDT (4/12) 10:33 PM CDT (4/12)
Length of Visible Light 13h 49m
Length of Day
12h 58m
Waxing Crescent, 5% of the Moon is Illuminated
Apr 12
Waxing Crescent
Apr 18
First Quarter
Apr 25
Full
May 2
Last Quarter
May 9
New

Hourly Weather History & Observations

Time (CDT) Temp. Windchill Dew Point Humidity Pressure Visibility Wind Dir Wind Speed Gust Speed Precip Events Conditions
12:15 AM 45.7 °F 43.4 °F 37.6 °F 73% 29.87 in 10.0 mi NE 4.6 mph - N/A   Clear
12:35 AM 43.9 °F - 37.6 °F 78% 29.87 in 10.0 mi Calm Calm - N/A   Clear
12:55 AM 44.6 °F - 38.3 °F 79% 29.87 in 10.0 mi Calm Calm - N/A   Clear
1:15 AM 47.7 °F - 36.3 °F 65% 29.88 in 10.0 mi Calm Calm - N/A   Clear
1:35 AM 44.6 °F - 38.8 °F 80% 29.89 in 10.0 mi Calm Calm - N/A   Clear
1:55 AM 41.9 °F 36.3 °F 37.9 °F 86% 29.90 in 10.0 mi North 9.2 mph - N/A   Clear
2:15 AM 41.5 °F 37.1 °F 36.9 °F 83% 29.91 in 10.0 mi North 6.9 mph - N/A   Clear
2:35 AM 42.4 °F 38.8 °F 37.0 °F 81% 29.91 in 10.0 mi North 5.8 mph - N/A   Clear
2:55 AM 41.4 °F 36.8 °F 36.5 °F 83% 29.91 in 10.0 mi North 6.9 mph - N/A   Clear
3:15 AM 41.9 °F 39.0 °F 37.0 °F 83% 29.91 in 10.0 mi NNW 4.6 mph - N/A   Clear
3:35 AM 41.9 °F 39.0 °F 37.2 °F 83% 29.91 in 10.0 mi NNW 4.6 mph - N/A   Clear
3:55 AM 41.5 °F - 37.6 °F 86% 29.91 in 10.0 mi Calm Calm - N/A   Clear
4:15 AM 41.5 °F 38.6 °F 36.9 °F 83% 29.91 in 10.0 mi NNW 4.6 mph - N/A   Clear
4:35 AM 38.8 °F 35.4 °F 34.9 °F 86% 29.92 in 10.0 mi North 4.6 mph - N/A   Clear
4:55 AM 41.0 °F 38.0 °F 36.0 °F 82% 29.92 in 10.0 mi NE 4.6 mph - N/A   Clear
5:15 AM 41.5 °F - 35.6 °F 79% 29.92 in 10.0 mi Calm Calm - N/A   Clear
5:35 AM 41.9 °F - 35.8 °F 79% 29.92 in 10.0 mi Calm Calm - N/A   Clear
5:55 AM 42.1 °F - 35.8 °F 78% 29.92 in 10.0 mi Calm Calm - N/A   Clear
6:15 AM 40.5 °F 37.3 °F 36.0 °F 84% 29.93 in 10.0 mi North 4.6 mph - N/A   Clear
6:35 AM 43.0 °F 41.3 °F 35.1 °F 74% 29.93 in 10.0 mi NNE 3.5 mph - N/A   Clear
6:55 AM 44.2 °F 40.3 °F 37.0 °F 76% 29.93 in 10.0 mi NNE 6.9 mph - N/A   Clear
7:15 AM 45.5 °F 42.5 °F 37.4 °F 73% 29.94 in 10.0 mi NNE 5.8 mph - N/A   Clear
7:35 AM 46.8 °F - 36.1 °F 67% 29.95 in 10.0 mi NE 11.5 mph - N/A   Clear
7:55 AM 46.8 °F - 35.8 °F 66% 29.97 in 10.0 mi NE 13.8 mph - N/A   Clear
8:15 AM 46.4 °F 40.1 °F 36.3 °F 68% 29.97 in 10.0 mi NE 15.0 mph - N/A   Clear
8:35 AM 46.6 °F - 36.7 °F 68% 29.98 in 10.0 mi NE 10.4 mph - N/A   Clear
8:55 AM 47.1 °F - 36.7 °F 67% 29.99 in 10.0 mi NE 6.9 mph - N/A   Clear
9:15 AM 47.7 °F - 36.9 °F 66% 30.01 in 10.0 mi NNE 6.9 mph - N/A   Clear
9:35 AM 48.0 °F - 37.0 °F 66% 29.99 in 10.0 mi NE 13.8 mph - N/A   Clear
9:55 AM 49.6 °F - 36.3 °F 60% 30.00 in 10.0 mi NNE 8.1 mph - N/A   Clear
10:15 AM 50.9 °F - 35.6 °F 56% 30.01 in 10.0 mi NNE 9.2 mph - N/A   Clear
10:35 AM 52.0 °F - 35.4 °F 53% 30.03 in 10.0 mi ENE 6.9 mph - N/A   Clear
10:55 AM 54.0 °F - 35.2 °F 49% 30.03 in 10.0 mi East 5.8 mph - N/A   Clear
11:15 AM 55.6 °F - 34.3 °F 45% 30.04 in 10.0 mi ENE 9.2 mph - N/A   Clear
11:55 AM 57.2 °F - 35.8 °F 45% 30.05 in 10.0 mi ENE 5.8 mph - N/A   Clear
12:15 PM 56.8 °F - 35.4 °F 45% 30.05 in 10.0 mi ENE 5.8 mph - N/A   Clear
12:35 PM 58.8 °F - 37.0 °F 44% 30.03 in 10.0 mi East 11.5 mph - N/A   Clear
12:55 PM 59.5 °F - 36.9 °F 43% 30.03 in 10.0 mi East 10.4 mph - N/A   Clear
1:15 PM 60.4 °F - 38.3 °F 44% 30.02 in 10.0 mi East 11.5 mph 17.3 mph N/A   Clear
1:35 PM 60.8 °F - 38.1 °F 43% 30.01 in 10.0 mi ENE 11.5 mph - N/A   Clear
1:55 PM 61.3 °F - 39.0 °F 44% 30.00 in 10.0 mi East 8.1 mph - N/A   Clear
2:15 PM 62.1 °F - 39.6 °F 44% 29.99 in 10.0 mi ENE 9.2 mph - N/A   Clear
2:35 PM 63.1 °F - 40.5 °F 43% 29.99 in 10.0 mi ENE 8.1 mph - N/A   Clear
2:55 PM 63.5 °F - 40.3 °F 43% 29.98 in 10.0 mi ENE 8.1 mph - N/A   Clear
3:15 PM 65.1 °F - 42.8 °F 44% 29.96 in 10.0 mi East 9.2 mph - N/A   Clear
3:35 PM 65.8 °F - 42.8 °F 43% 29.95 in 10.0 mi East 8.1 mph - N/A   Clear
3:55 PM 67.3 °F - 43.0 °F 41% 29.93 in 10.0 mi East 6.9 mph - N/A   Clear
4:15 PM 67.1 °F - 44.1 °F 43% 29.92 in 10.0 mi East 10.4 mph - N/A   Clear
4:35 PM 68.0 °F - 41.4 °F 38% 29.92 in 10.0 mi ESE 9.2 mph - N/A   Clear
5:15 PM 68.2 °F - 39.7 °F 35% 29.92 in 10.0 mi SE 11.5 mph - N/A   Clear
5:35 PM 68.0 °F - 40.5 °F 37% 29.92 in 10.0 mi ESE 9.2 mph - N/A   Clear
5:55 PM 67.8 °F - 41.0 °F 38% 29.92 in 10.0 mi ESE 10.4 mph 16.1 mph N/A   Clear
6:15 PM 67.5 °F - 41.0 °F 38% 29.92 in 10.0 mi ESE 10.4 mph - N/A   Clear
6:35 PM 66.7 °F - 41.2 °F 39% 29.92 in 10.0 mi East 9.2 mph - N/A   Clear
6:55 PM 66.2 °F - 43.0 °F 43% 29.92 in 10.0 mi ESE 8.1 mph - N/A   Clear
7:15 PM 64.6 °F - 43.5 °F 46% 29.91 in 10.0 mi ESE 9.2 mph - N/A   Clear
7:35 PM 63.3 °F - 45.1 °F 52% 29.91 in 10.0 mi East 6.9 mph - N/A   Clear
7:55 PM 61.5 °F - 44.8 °F 54% 29.91 in 10.0 mi East 6.9 mph - N/A   Clear
8:15 PM 59.9 °F - 44.8 °F 57% 29.91 in 10.0 mi East 9.2 mph - N/A   Clear
8:35 PM 57.6 °F - 45.5 °F 64% 29.91 in 10.0 mi ENE 9.2 mph - N/A   Clear
9:15 PM 56.5 °F - 44.8 °F 65% 29.92 in 10.0 mi ENE 11.5 mph - N/A   Clear
9:35 PM 56.3 °F - 44.4 °F 64% 29.91 in 10.0 mi ENE 11.5 mph - N/A   Clear
9:55 PM 55.8 °F - 43.7 °F 64% 29.92 in 10.0 mi ENE 10.4 mph - N/A   Clear
10:15 PM 55.8 °F - 42.6 °F 61% 29.92 in 10.0 mi ENE 10.4 mph - N/A   Clear
10:35 PM 54.9 °F - 42.3 °F 63% 29.93 in 10.0 mi ENE 12.7 mph - N/A   Clear
10:55 PM 54.5 °F - 42.3 °F 63% 29.93 in 10.0 mi ENE 11.5 mph - N/A   Clear
11:15 PM 54.5 °F - 42.1 °F 63% 29.94 in 10.0 mi ENE 12.7 mph - N/A   Clear
11:35 PM 54.1 °F - 41.9 °F 63% 29.94 in 10.0 mi ENE 9.2 mph - N/A   Clear
11:55 PM 53.4 °F - 41.9 °F 65% 29.95 in 10.0 mi ENE 10.4 mph - N/A   Clear